Timestamp, Local Timestamp, ID, PM25, PM10, Co2, Temperature, Relative Humidity, Monitor ID, O3
2017-11-10T13:21:10Z,11/10/17 08:21,2052364,1.5609,0.1942,1401,-1.2,42.2,,0.0
2017-11-10T13:22:42Z,11/10/17 08:22,2052365,1.236,0.1836,1312,-0.1,42.0,,0.0
2017-11-10T13:23:45Z,11/10/17 08:23,2052366,1.1654,0.1307,1202,0.7,41.4,,0.0
2017-11-10T13:24:48Z,11/10/17 08:24,2052367,1.0347,0.0848,1112,1.4,40.7,,0.0
2017-11-10T13:25:51Z,11/10/17 08:25,2052368,1.0347,0.06,1060,2.2,40.0,,0.0
2017-11-10T13:26:55Z,11/10/17 08:26,2052369,0.9747,0.0636,1033,2.8,39.4,,0.0
2017-11-10T13:27:58Z,11/10/17 08:27,2052370,0.9923,0.0424,1012,3.5,38.7,,0.0
2017-11-10T13:29:01Z,11/10/17 08:29,2052371,0.9429,0.053,1016,4.2,38.0,,0.0
2017-11-10T13:30:04Z,11/10/17 08:30,2052372,0.9111,0.0494,1019,5.6,36.6,,0.0
2017-11-10T13:32:10Z,11/10/17 08:32,2052373,0.8511,0.0565,1033,6.8,35.4,,0.0
2017-11-10T13:33:13Z,11/10/17 08:33,2052374,0.791,0.0283,1029,7.4,34.8,,0.0
2017-11-10T13:34:16Z,11/10/17 08:34,2052375,0.8299,0.0388,1021,8.1,34.2,,0.0
2017-11-10T13:35:19Z,11/10/17 08:35,2052376,0.8193,0.0671,1049,8.6,33.7,,0.0
2017-11-10T13:36:22Z,11/10/17 08:36,2052377,0.8264,0.0742,1034,9.1,33.2,,0.0
2017-11-10T13:37:25Z,11/10/17 08:37,2052378,0.8158,0.0848,1056,9.5,32.7,,0.0
2017-11-10T13:38:28Z,11/10/17 08:38,2052379,0.7416,0.0742,1031,10.1,32.2,,0.0
2017-11-10T13:39:31Z,11/10/17 08:39,2052380,0.7875,0.0565,1036,10.6,31.7,,0.0
2017-11-10T13:40:34Z,11/10/17 08:40,2052381,0.7451,0.053,1035,11.0,31.1,,0.0
2017-11-10T13:41:37Z,11/10/17 08:41,2052382,0.7204,0.0388,1010,11.4,30.6,,0.0
2017-11-10T13:42:40Z,11/10/17 08:42,2052383,0.6922,0.0494,1032,11.9,30.2,,0.0
2017-11-10T13:43:44Z,11/10/17 08:43,2052384,0.9147,0.3178,1093,12.3,30.1,,0.0
2017-11-10T13:44:47Z,11/10/17 08:44,2052385,0.7805,0.2578,1116,12.9,29.5,,0.0
2017-11-10T13:45:50Z,11/10/17 08:45,2052386,0.671,0.0742,1121,13.4,28.9,,0.0
2017-11-10T13:46:53Z,11/10/17 08:46,2052387,0.6004,0.0671,1083,14.0,28.2,,0.01
2017-11-10T13:47:56Z,11/10/17 08:47,2052388,0.6039,0.0636,1092,14.5,27.7,,0.01
2017-11-10T13:48:59Z,11/10/17 08:48,2052389,0.6004,0.0494,1076,15.0,27.2,,0.01
2017-11-10T13:50:02Z,11/10/17 08:50,2052390,0.6286,0.1024,1118,15.8,26.4,,0.01
2017-11-10T13:52:08Z,11/10/17 08:52,2052391,0.5474,0.053,1066,16.4,25.5,,0.01
2017-11-10T13:53:11Z,11/10/17 08:53,2052392,0.4944,0.0424,1089,16.7,25.1,,0.01
2017-11-10T13:54:14Z,11/10/17 08:54,2052393,0.5085,0.0636,1082,17.0,24.7,,0.01
2017-11-10T13:55:17Z,11/10/17 08:55,2052394,0.4732,0.0494,1068,17.3,24.5,,0.01
2017-11-10T13:56:20Z,11/10/17 08:56,2052395,0.4873,0.0353,1075,17.5,24.2,,0.01
2017-11-10T13:57:23Z,11/10/17 08:57,2052396,0.6922,0.2825,1077,17.8,23.9,,0.01
2017-11-10T13:58:26Z,11/10/17 08:58,2052397,0.4873,0.0989,1096,17.9,23.7,,0.01
2017-11-10T13:59:29Z,11/10/17 08:59,2052398,0.4697,0.0494,1079,18.1,23.4,,0.01
2017-11-10T14:00:33Z,11/10/17 09:00,2052399,0.4591,0.053,1101,18.3,23.1,,0.01
2017-11-10T14:01:36Z,11/10/17 09:01,2052400,0.4697,0.0636,1087,18.5,23.0,,0.01
2017-11-10T14:02:39Z,11/10/17 09:02,2052401,0.4485,0.06,1105,18.6,22.8,,0.01
2017-11-10T14:03:42Z,11/10/17 09:03,2052402,0.4767,0.0848,1113,18.7,22.7,,0.01
2017-11-10T14:04:45Z,11/10/17 09:04,2052403,0.4308,0.0494,1117,18.8,22.5,,0.01
2017-11-10T14:05:48Z,11/10/17 09:05,2052404,0.4556,0.0353,1102,19.0,22.3,,0.01
2017-11-10T14:06:51Z,11/10/17 09:06,2052405,0.4485,0.053,1102,19.1,22.1,,0.01
2017-11-10T14:07:54Z,11/10/17 09:07,2052406,0.4379,0.053,1091,19.2,22.0,,0.01
2017-11-10T14:08:57Z,11/10/17 09:08,2052407,0.5085,0.1024,1125,19.2,21.9,,0.01
2017-11-10T14:10:00Z,11/10/17 09:10,2052408,0.5191,0.1307,1113,19.3,21.8,,0.01
2017-11-10T14:11:03Z,11/10/17 09:11,2052409,0.4273,0.0636,1149,19.6,21.5,,0.01
2017-11-10T14:13:09Z,11/10/17 09:13,2052410,0.4167,0.0636,1185,19.8,21.3,,0.01
2017-11-10T14:14:12Z,11/10/17 09:14,2052411,0.4732,0.0671,1170,19.9,21.2,,0.01
2017-11-10T14:15:15Z,11/10/17 09:15,2052412,0.4167,0.0565,1184,19.9,21.1,,0.01
2017-11-10T14:16:18Z,11/10/17 09:16,2052413,0.4273,0.0777,1191,20.0,21.0,,0.01
2017-11-10T14:17:21Z,11/10/17 09:17,2052414,0.445,0.053,1207,20.1,20.9,,0.01
2017-11-10T14:18:25Z,11/10/17 09:18,2052415,0.4238,0.06,1186,20.2,20.7,,0.01
2017-11-10T14:19:28Z,11/10/17 09:19,2052416,0.4344,0.0388,1214,20.2,20.7,,0.01
2017-11-10T14:20:31Z,11/10/17 09:20,2052417,0.4026,0.0424,1241,20.3,20.7,,0.01
2017-11-10T14:21:34Z,11/10/17 09:21,2052418,0.4132,0.0424,1216,20.4,20.7,,0.01
2017-11-10T14:22:37Z,11/10/17 09:22,2052419,0.4379,0.0494,1219,20.4,20.6,,0.01
2017-11-10T14:23:40Z,11/10/17 09:23,2052420,0.3849,0.0494,1207,20.5,20.5,,0.01
2017-11-10T14:24:43Z,11/10/17 09:24,2052421,0.4061,0.0459,1230,20.6,20.5,,0.01
2017-11-10T14:25:46Z,11/10/17 09:25,2052422,0.3779,0.0353,1230,20.6,20.4,,0.01
2017-11-10T14:26:49Z,11/10/17 09:26,2052423,0.3637,0.0247,1244,20.6,20.3,,0.01
2017-11-10T14:27:52Z,11/10/17 09:27,2052424,0.3567,0.0388,1196,20.6,20.3,,0.01
2017-11-10T14:28:55Z,11/10/17 09:28,2052425,0.3991,0.0353,1267,20.6,20.3,,0.01
2017-11-10T14:29:58Z,11/10/17 09:29,2052426,0.4132,0.0388,1238,20.6,20.2,,0.01
2017-11-10T14:31:01Z,11/10/17 09:31,2052427,0.3743,0.0388,1232,20.6,20.2,,0.01
2017-11-10T14:32:04Z,11/10/17 09:32,2052428,0.3814,0.0424,1249,20.7,20.1,,0.01
2017-11-10T14:33:07Z,11/10/17 09:33,2052429,0.3637,0.0212,1305,20.7,20.0,,0.01
2017-11-10T14:34:10Z,11/10/17 09:34,2052430,0.3885,0.0177,1288,20.8,20.0,,0.01
2017-11-10T14:35:14Z,11/10/17 09:35,2052431,0.332,0.0212,1270,20.8,19.9,,0.01
2017-11-10T14:36:17Z,11/10/17 09:36,2052432,0.3284,0.0283,1247,20.9,19.9,,0.01
2017-11-10T14:37:20Z,11/10/17 09:37,2052433,0.3849,0.0212,1263,20.9,19.8,,0.01
2017-11-10T14:38:23Z,11/10/17 09:38,2052434,0.3637,0.0283,1266,20.9,19.8,,0.01
2017-11-10T14:39:26Z,11/10/17 09:39,2052435,0.4132,0.0071,1264,21.0,19.8,,0.01
2017-11-10T14:40:29Z,11/10/17 09:40,2052436,0.3531,0.0212,1306,21.0,19.7,,0.01
2017-11-10T14:41:32Z,11/10/17 09:41,2052437,0.3991,0.0212,1300,21.0,19.7,,0.01
2017-11-10T14:42:35Z,11/10/17 09:42,2052438,0.3461,0.0106,1277,21.1,19.6,,0.01
2017-11-10T14:43:38Z,11/10/17 09:43,2052439,0.3426,0.0283,1275,21.1,19.6,,0.01
2017-11-10T14:44:41Z,11/10/17 09:44,2052440,0.3284,0.0141,1300,21.1,19.6,,0.01
2017-11-10T14:45:44Z,11/10/17 09:45,2052441,0.3496,0.0141,1297,21.0,19.5,,0.01
2017-11-10T14:46:47Z,11/10/17 09:46,2052442,0.4061,0.0177,1239,21.1,19.5,,0.01
2017-11-10T14:47:50Z,11/10/17 09:47,2052443,0.3426,0.0106,1294,21.1,19.5,,0.01
2017-11-10T14:48:53Z,11/10/17 09:48,2052444,0.3284,0.0106,1304,21.1,19.5,,0.01
2017-11-10T14:49:56Z,11/10/17 09:49,2052445,0.3108,0.0283,1275,21.1,19.4,,0.01
2017-11-10T14:50:59Z,11/10/17 09:50,2052446,0.3496,0.0141,1291,21.1,19.4,,0.01
2017-11-10T14:52:03Z,11/10/17 09:52,2052447,0.3567,0.0106,1273,21.1,19.3,,0.01
2017-11-10T14:54:09Z,11/10/17 09:54,2052448,0.3178,0.0106,1276,21.1,19.2,,0.01
2017-11-10T14:55:12Z,11/10/17 09:55,2052449,0.3426,0.0141,1301,21.2,19.2,,0.01
2017-11-10T14:56:15Z,11/10/17 09:56,2052450,0.3284,0.0141,1315,21.2,19.2,,0.01
2017-11-10T14:57:18Z,11/10/17 09:57,2052451,0.3602,0.0177,1276,21.2,19.1,,0.01
2017-11-10T14:58:21Z,11/10/17 09:58,2052452,0.3496,0.0141,1282,21.2,19.1,,0.01
2017-11-10T14:59:24Z,11/10/17 09:59,2052453,0.3426,0.0141,1286,21.2,19.1,,0.01
2017-11-10T15:00:27Z,11/10/17 10:00,2052454,0.3814,0.0106,1295,21.2,19.1,,0.01
2017-11-10T15:01:30Z,11/10/17 10:01,2052455,0.3743,0.0071,1305,21.2,19.1,,0.01
2017-11-10T15:02:33Z,11/10/17 10:02,2052456,0.3214,0.0177,1325,21.3,19.1,,0.01
2017-11-10T15:03:36Z,11/10/17 10:03,2052457,0.3355,0.0141,1290,21.3,19.1,,0.01
2017-11-10T15:04:39Z,11/10/17 10:04,2052458,0.3779,0.0106,1303,21.3,19.0,,0.01
2017-11-10T15:05:42Z,11/10/17 10:05,2052459,0.3496,0.0177,1261,21.3,19.0,,0.01
2017-11-10T15:06:45Z,11/10/17 10:06,2052460,0.3461,0.0141,1296,21.3,19.0,,0.01
2017-11-10T15:07:48Z,11/10/17 10:07,2052461,0.339,0.0071,1274,21.3,18.9,,0.01
2017-11-10T15:08:52Z,11/10/17 10:08,2052462,0.3249,0.0283,1306,21.3,18.9,,0.01
2017-11-10T15:09:55Z,11/10/17 10:09,2052463,0.339,0.0212,1310,21.3,18.9,,0.01
2017-11-10T15:10:58Z,11/10/17 10:10,2052464,0.3708,0.0177,1274,21.3,18.9,,0.01
2017-11-10T15:12:01Z,11/10/17 10:12,2052465,0.3496,0.0353,1306,21.3,18.9,,0.01
2017-11-10T15:13:04Z,11/10/17 10:13,2052466,0.3567,0.0318,1293,21.4,18.9,,0.01
2017-11-10T15:15:10Z,11/10/17 10:15,2052467,0.3214,0.0318,1271,21.4,18.9,,0.01
2017-11-10T15:16:13Z,11/10/17 10:16,2052468,0.4167,0.0353,1320,21.4,18.8,,0.01
2017-11-10T15:17:16Z,11/10/17 10:17,2052469,0.392,0.0388,1307,21.4,18.8,,0.02
2017-11-10T15:18:19Z,11/10/17 10:18,2052470,0.4026,0.0212,1324,21.5,18.7,,0.02
2017-11-10T15:19:22Z,11/10/17 10:19,2052471,0.3602,0.0283,1317,21.5,18.7,,0.01
2017-11-10T15:20:25Z,11/10/17 10:20,2052472,0.3461,0.0318,1320,21.5,18.7,,0.02
2017-11-10T15:21:28Z,11/10/17 10:21,2052473,0.3637,0.0353,1294,21.5,18.6,,0.02
2017-11-10T15:22:31Z,11/10/17 10:22,2052474,0.3849,0.0283,1269,21.6,18.6,,0.02
2017-11-10T15:23:34Z,11/10/17 10:23,2052475,0.4273,0.0353,1305,21.6,18.6,,0.02
2017-11-10T15:24:37Z,11/10/17 10:24,2052476,0.3743,0.0212,1312,21.6,18.6,,0.02
2017-11-10T15:25:41Z,11/10/17 10:25,2052477,0.3426,0.0247,1315,21.6,18.6,,0.01
2017-11-10T15:26:44Z,11/10/17 10:26,2052478,0.392,0.0283,1335,21.6,18.6,,0.02
2017-11-10T15:27:47Z,11/10/17 10:27,2052479,0.3637,0.0283,1305,21.6,18.6,,0.02
2017-11-10T15:28:50Z,11/10/17 10:28,2052480,0.3637,0.0212,1298,21.6,18.5,,0.02
2017-11-10T15:29:53Z,11/10/17 10:29,2052481,0.3143,0.0247,1308,21.6,18.5,,0.02
2017-11-10T15:30:56Z,11/10/17 10:30,2052482,0.3355,0.0247,1308,21.7,18.5,,0.02
2017-11-10T15:31:59Z,11/10/17 10:31,2052483,0.3885,0.0141,1325,21.7,18.5,,0.02
2017-11-10T15:33:02Z,11/10/17 10:33,2052484,0.3955,0.0283,1280,21.7,18.5,,0.02
2017-11-10T15:35:08Z,11/10/17 10:35,2052485,0.3885,0.0318,1280,21.7,18.4,,0.02
2017-11-10T15:36:11Z,11/10/17 10:36,2052486,0.3849,0.0247,1254,21.7,18.4,,0.02
2017-11-10T15:37:14Z,11/10/17 10:37,2052487,0.3849,0.0318,1289,21.7,18.4,,0.02
2017-11-10T15:38:17Z,11/10/17 10:38,2052488,0.4026,0.0353,1316,21.7,18.3,,0.02
2017-11-10T15:39:20Z,11/10/17 10:39,2052489,0.3885,0.0283,1309,21.7,18.3,,0.02
2017-11-10T15:40:23Z,11/10/17 10:40,2052490,0.5191,0.0742,1428,21.7,18.9,,0.02
2017-11-10T15:41:26Z,11/10/17 10:41,2052491,0.4097,0.0565,1477,21.7,18.8,,0.02
2017-11-10T15:42:30Z,11/10/17 10:42,2052492,0.3991,0.0565,1543,21.6,19.0,,0.01
2017-11-10T15:43:33Z,11/10/17 10:43,2052493,0.3955,0.0459,1477,21.6,19.0,,0.02
2017-11-10T15:44:36Z,11/10/17 10:44,2052494,0.4097,0.0565,1463,21.6,18.8,,0.02
2017-11-10T15:45:39Z,11/10/17 10:45,2052495,0.4026,0.0494,1345,21.6,18.6,,0.02
2017-11-10T15:46:42Z,11/10/17 10:46,2052496,0.3779,0.0636,1298,21.5,18.5,,0.02
2017-11-10T15:47:45Z,11/10/17 10:47,2052497,0.4238,0.0494,1250,21.5,18.5,,0.02
2017-11-10T15:48:48Z,11/10/17 10:48,2052498,0.4662,0.0636,1249,21.5,18.4,,0.02
2017-11-10T15:49:51Z,11/10/17 10:49,2052499,0.4379,0.0494,1266,21.5,18.3,,0.02
2017-11-10T15:50:54Z,11/10/17 10:50,2052500,0.4414,0.0636,1253,21.4,18.3,,0.02
2017-11-10T15:51:57Z,11/10/17 10:51,2052501,0.4238,0.0318,1217,21.4,18.3,,0.02
2017-11-10T15:53:00Z,11/10/17 10:53,2052502,0.4697,0.0353,1217,21.4,18.2,,0.02
2017-11-10T15:54:03Z,11/10/17 10:54,2052503,0.4662,0.0424,1191,21.4,18.1,,0.02
2017-11-10T15:56:09Z,11/10/17 10:56,2052504,0.4591,0.0494,1173,21.6,18.0,,0.02
2017-11-10T15:57:12Z,11/10/17 10:57,2052505,0.4873,0.0247,1195,21.6,17.9,,0.02
2017-11-10T15:58:15Z,11/10/17 10:58,2052506,0.4485,0.0283,1173,21.7,17.9,,0.02
2017-11-10T15:59:18Z,11/10/17 10:59,2052507,0.4873,0.0353,1167,21.7,17.9,,0.02
2017-11-10T16:00:22Z,11/10/17 11:00,2052508,0.5121,0.0247,1155,21.7,17.8,,0.02
2017-11-10T16:01:25Z,11/10/17 11:01,2052509,0.5191,0.0353,1126,21.7,17.7,,0.02
2017-11-10T16:02:28Z,11/10/17 11:02,2052510,0.4979,0.0177,1152,21.7,17.7,,0.02
2017-11-10T16:03:31Z,11/10/17 11:03,2052511,0.4767,0.0353,1133,21.7,17.6,,0.02
2017-11-10T16:04:34Z,11/10/17 11:04,2052512,0.5156,0.0283,1136,21.7,17.6,,0.02
2017-11-10T16:05:37Z,11/10/17 11:05,2052513,0.5227,0.0212,1139,21.7,17.5,,0.02
2017-11-10T16:06:40Z,11/10/17 11:06,2052514,0.4979,0.0141,1143,21.7,17.5,,0.02
2017-11-10T16:07:43Z,11/10/17 11:07,2052515,0.5333,0.0247,1115,21.7,17.5,,0.02
2017-11-10T16:08:46Z,11/10/17 11:08,2052516,0.5827,0.0177,1143,21.7,17.5,,0.02
2017-11-10T16:09:49Z,11/10/17 11:09,2052517,0.5191,0.0141,1117,21.7,17.5,,0.02
2017-11-10T16:10:52Z,11/10/17 11:10,2052518,0.618,0.0636,1136,21.7,17.5,,0.02
2017-11-10T16:11:55Z,11/10/17 11:11,2052519,0.5898,0.0388,1123,21.6,17.5,,0.02
2017-11-10T16:12:58Z,11/10/17 11:12,2052520,0.5156,0.0636,1129,21.7,17.5,,0.02
2017-11-10T16:14:01Z,11/10/17 11:14,2052521,0.5333,0.053,1164,21.7,17.5,,0.02
2017-11-10T16:15:04Z,11/10/17 11:15,2052522,0.565,0.0706,1184,21.7,17.6,,0.02
2017-11-10T16:16:07Z,11/10/17 11:16,2052523,0.5438,0.0671,1203,21.7,17.6,,0.02
2017-11-10T16:17:11Z,11/10/17 11:17,2052524,0.5333,0.053,1206,21.7,17.6,,0.02
2017-11-10T16:18:14Z,11/10/17 11:18,2052525,0.5368,0.06,1209,21.7,17.7,,0.02
2017-11-10T16:19:17Z,11/10/17 11:19,2052526,0.5121,0.0636,1212,21.7,17.7,,0.02
2017-11-10T16:20:20Z,11/10/17 11:20,2052527,0.5403,0.0565,1261,21.7,17.7,,0.02
2017-11-10T16:21:23Z,11/10/17 11:21,2052528,0.5297,0.06,1241,21.7,17.7,,0.02
2017-11-10T16:22:26Z,11/10/17 11:22,2052529,0.5121,0.0706,1238,21.7,17.7,,0.02
2017-11-10T16:23:29Z,11/10/17 11:23,2052530,0.5262,0.0424,1241,21.7,17.7,,0.02
2017-11-10T16:24:32Z,11/10/17 11:24,2052531,0.4944,0.0318,1242,21.8,17.7,,0.02
2017-11-10T16:25:35Z,11/10/17 11:25,2052532,0.505,0.0424,1275,21.8,17.7,,0.02
2017-11-10T16:26:38Z,11/10/17 11:26,2052533,0.4909,0.0353,1279,21.8,17.8,,0.02
2017-11-10T16:27:41Z,11/10/17 11:27,2052534,0.4873,0.0565,1292,21.8,17.8,,0.02
2017-11-10T16:28:44Z,11/10/17 11:28,2052535,0.5227,0.0388,1269,21.8,17.8,,0.02
2017-11-10T16:29:47Z,11/10/17 11:29,2052536,0.4909,0.0388,1275,21.8,17.8,,0.02
2017-11-10T16:30:50Z,11/10/17 11:30,2052537,0.4732,0.0388,1259,21.8,17.9,,0.02
2017-11-10T16:31:53Z,11/10/17 11:31,2052538,0.5015,0.0318,1321,21.8,17.9,,0.02
2017-11-10T16:32:56Z,11/10/17 11:32,2052539,0.4344,0.0459,1282,21.8,17.9,,0.02
2017-11-10T16:34:00Z,11/10/17 11:34,2052540,0.4414,0.0318,1338,21.8,17.9,,0.02
2017-11-10T16:35:03Z,11/10/17 11:35,2052541,0.4591,0.0283,1301,21.8,17.9,,0.02
2017-11-10T16:37:09Z,11/10/17 11:37,2052542,0.4308,0.0318,1312,21.9,17.9,,0.02
2017-11-10T16:38:12Z,11/10/17 11:38,2052543,0.4979,0.0388,1335,21.9,17.9,,0.02
2017-11-10T16:39:15Z,11/10/17 11:39,2052544,0.4556,0.0388,1312,21.9,17.9,,0.02
2017-11-10T16:40:18Z,11/10/17 11:40,2052545,0.392,0.0353,1293,21.9,17.9,,0.02
2017-11-10T16:41:21Z,11/10/17 11:41,2052546,0.4873,0.0318,1309,22.0,17.9,,0.02
2017-11-10T16:42:24Z,11/10/17 11:42,2052547,0.4061,0.0247,1302,22.0,17.9,,0.02
2017-11-10T16:43:27Z,11/10/17 11:43,2052548,0.4344,0.0283,1342,22.0,17.9,,0.02
2017-11-10T16:44:30Z,11/10/17 11:44,2052549,0.445,0.0318,1333,22.0,17.9,,0.02
2017-11-10T16:45:33Z,11/10/17 11:45,2052550,0.4379,0.0388,1350,22.1,17.9,,0.02
2017-11-10T16:46:36Z,11/10/17 11:46,2052551,0.4485,0.0247,1343,22.1,17.9,,0.02
2017-11-10T16:47:39Z,11/10/17 11:47,2052552,0.4591,0.0318,1336,22.1,17.9,,0.02
2017-11-10T16:48:42Z,11/10/17 11:48,2052553,0.4379,0.0353,1336,22.1,17.9,,0.02
2017-11-10T16:49:45Z,11/10/17 11:49,2052554,0.4132,0.0212,1333,22.1,17.9,,0.02
2017-11-10T16:50:49Z,11/10/17 11:50,2052555,0.4344,0.0388,1343,22.1,17.9,,0.02
2017-11-10T16:51:52Z,11/10/17 11:51,2052556,0.4238,0.0353,1363,22.1,17.9,,0.02
2017-11-10T16:52:55Z,11/10/17 11:52,2052557,0.4167,0.0283,1340,22.1,17.9,,0.02
2017-11-10T16:53:58Z,11/10/17 11:53,2052558,0.4132,0.0247,1340,22.1,17.9,,0.02
2017-11-10T16:55:01Z,11/10/17 11:55,2052559,0.4414,0.0247,1353,22.0,17.9,,0.02
2017-11-10T16:56:04Z,11/10/17 11:56,2052560,0.452,0.0388,1343,22.0,18.0,,0.02
2017-11-10T16:58:10Z,11/10/17 11:58,2052561,0.4379,0.0283,1336,22.0,18.0,,0.02
2017-11-10T16:59:13Z,11/10/17 11:59,2052562,0.4308,0.0247,1360,22.0,18.0,,0.02
2017-11-10T17:00:16Z,11/10/17 12:00,2052563,0.4662,0.0318,1370,22.0,18.0,,0.02
2017-11-10T17:01:19Z,11/10/17 12:01,2052564,0.4591,0.0283,1317,22.0,18.0,,0.02
2017-11-10T17:02:22Z,11/10/17 12:02,2052565,0.4414,0.0388,1333,21.9,17.9,,0.02
2017-11-10T17:03:25Z,11/10/17 12:03,2052566,0.4414,0.0353,1329,21.9,17.9,,0.02
2017-11-10T17:04:28Z,11/10/17 12:04,2052567,0.4944,0.0636,1335,21.9,17.9,,0.02
2017-11-10T17:05:31Z,11/10/17 12:05,2052568,0.5156,0.0636,1313,22.0,18.0,,0.02
2017-11-10T17:06:34Z,11/10/17 12:06,2052569,0.4909,0.0636,1340,22.0,18.0,,0.02
2017-11-10T17:07:38Z,11/10/17 12:07,2052570,0.4803,0.0494,1343,22.0,18.0,,0.02
2017-11-10T17:08:41Z,11/10/17 12:08,2052571,0.4485,0.0283,1350,22.1,18.0,,0.02
2017-11-10T17:09:44Z,11/10/17 12:09,2052572,0.4767,0.0388,1340,22.1,17.9,,0.02
2017-11-10T17:10:47Z,11/10/17 12:10,2052573,0.4591,0.06,1380,22.0,17.9,,0.02
2017-11-10T17:11:50Z,11/10/17 12:11,2052574,0.4732,0.0565,1340,22.1,17.9,,0.02
2017-11-10T17:12:53Z,11/10/17 12:12,2052575,0.4873,0.0318,1308,22.2,17.8,,0.02
2017-11-10T17:13:56Z,11/10/17 12:13,2052576,0.4662,0.0353,1327,22.2,17.8,,0.02
2017-11-10T17:14:59Z,11/10/17 12:14,2052577,0.505,0.0388,1354,22.3,17.8,,0.02
2017-11-10T17:16:02Z,11/10/17 12:16,2052578,0.5121,0.0883,1342,22.3,17.9,,0.02
2017-11-13T16:51:37Z,11/13/17 11:51,2052579,1.0312,0.0141,1261,19.4,33.7,,0.0
2017-11-13T16:53:09Z,11/13/17 11:53,2052580,0.9394,0.0106,1144,19.9,33.2,,0.0
2017-11-13T16:54:12Z,11/13/17 11:54,2052581,0.9641,0.0071,1136,20.2,33.0,,0.0
2017-11-13T16:55:15Z,11/13/17 11:55,2052582,0.8299,0.0071,1186,20.5,32.6,,0.0
2017-11-13T16:56:18Z,11/13/17 11:56,2052583,0.8687,0.0071,1150,20.6,32.4,,0.0
2017-11-13T16:57:21Z,11/13/17 11:57,2052584,0.7769,0.0106,1117,20.8,32.1,,0.0
2017-11-13T16:58:25Z,11/13/17 11:58,2052585,0.7769,0.0,1144,21.1,31.8,,0.0
2017-11-13T16:59:28Z,11/13/17 11:59,2052586,0.8052,0.0035,1184,21.3,31.6,,0.0
2017-11-13T17:00:31Z,11/13/17 12:00,2052587,0.8122,0.0071,1148,21.5,31.3,,0.0
2017-11-13T17:01:34Z,11/13/17 12:01,2052588,0.791,0.0071,1320,21.7,31.5,,0.0
2017-11-13T17:02:37Z,11/13/17 12:02,2052589,0.7875,0.0035,1306,21.9,31.0,,0.0
2017-11-13T17:03:40Z,11/13/17 12:03,2052590,0.7416,0.0035,1343,22.1,31.0,,0.0
2017-11-13T17:04:43Z,11/13/17 12:04,2052591,0.8334,0.0141,1348,22.3,30.8,,0.0
2017-11-13T17:05:46Z,11/13/17 12:05,2052592,0.7734,0.0071,1290,22.4,30.5,,0.0
2017-11-13T17:06:49Z,11/13/17 12:06,2052593,0.7875,0.0141,1245,22.5,30.5,,0.0
2017-11-13T17:07:52Z,11/13/17 12:07,2052594,0.791,0.0106,1319,22.7,30.3,,0.0
2017-11-13T17:08:55Z,11/13/17 12:08,2052595,0.7063,0.0141,1337,22.9,30.0,,0.0
2017-11-13T17:09:58Z,11/13/17 12:09,2052596,0.7134,0.0071,1279,22.9,29.8,,0.0
2017-11-13T17:11:01Z,11/13/17 12:11,2052597,0.7663,0.0071,1244,23.1,29.5,,0.0
2017-11-13T17:12:04Z,11/13/17 12:12,2052598,0.791,0.0071,1310,23.4,29.5,,0.0
2017-11-13T17:13:07Z,11/13/17 12:13,2052599,0.7345,0.0035,1428,23.4,29.5,,0.0
2017-11-13T17:14:10Z,11/13/17 12:14,2052600,0.7275,0.0141,1416,23.6,29.2,,0.0
2017-11-13T17:15:14Z,11/13/17 12:15,2052601,0.6992,0.0106,1403,23.6,29.0,,0.0
2017-11-13T17:16:17Z,11/13/17 12:16,2052602,0.7134,0.0106,1321,23.7,28.8,,0.0
2017-11-13T17:17:20Z,11/13/17 12:17,2052603,0.7028,0.0071,1312,23.8,28.7,,0.0
2017-11-13T17:18:23Z,11/13/17 12:18,2052604,0.6992,0.0177,1296,23.9,28.6,,0.0
2017-11-13T17:19:26Z,11/13/17 12:19,2052605,0.7451,0.0106,1228,24.0,28.4,,0.0
2017-11-13T17:20:29Z,11/13/17 12:20,2052606,0.7169,0.0071,1275,24.0,28.3,,0.0
2017-11-13T17:21:32Z,11/13/17 12:21,2052607,0.6745,0.0035,1252,24.1,28.2,,0.0
2017-11-13T17:22:35Z,11/13/17 12:22,2052608,0.7169,0.0071,1289,24.2,28.0,,0.0
2017-11-13T17:23:38Z,11/13/17 12:23,2052609,0.6957,0.0106,1321,24.2,28.0,,0.0
2017-11-13T17:24:41Z,11/13/17 12:24,2052610,0.7487,0.0071,1283,24.3,27.9,,0.0
2017-11-13T17:25:44Z,11/13/17 12:25,2052611,0.7098,0.0106,1277,24.3,27.7,,0.0
2017-11-13T17:26:47Z,11/13/17 12:26,2052612,0.671,0.0071,1271,24.4,27.7,,0.0
2017-11-13T17:27:50Z,11/13/17 12:27,2052613,0.7451,0.0035,1264,24.4,27.6,,0.0
2017-11-13T17:28:53Z,11/13/17 12:28,2052614,0.6745,0.0035,1255,24.5,27.4,,0.0
2017-11-13T17:29:56Z,11/13/17 12:29,2052615,0.6321,0.0035,1220,24.5,27.3,,0.0
2017-11-13T17:30:59Z,11/13/17 12:30,2052616,0.6992,0.0071,1272,24.6,27.3,,0.01
2017-11-13T17:32:03Z,11/13/17 12:32,2052617,0.7098,0.0071,1289,24.7,27.3,,0.0
2017-11-13T17:34:09Z,11/13/17 12:34,2052618,0.6604,0.0071,1257,24.7,27.1,,0.01
2017-11-13T17:35:12Z,11/13/17 12:35,2052619,0.7487,0.0177,1250,24.7,27.1,,0.01
2017-11-13T17:36:15Z,11/13/17 12:36,2052620,0.671,0.0177,1205,24.8,27.1,,0.0
2017-11-13T17:37:18Z,11/13/17 12:37,2052621,0.6745,0.0071,1380,24.8,27.5,,0.0
2017-11-13T17:38:21Z,11/13/17 12:38,2052622,0.6604,0.0071,1410,24.8,27.3,,0.0
2017-11-13T17:39:24Z,11/13/17 12:39,2052623,0.7204,0.0177,1323,24.8,27.1,,0.01
2017-11-13T17:40:27Z,11/13/17 12:40,2052624,0.7769,0.0106,1297,24.8,27.1,,0.01
2017-11-13T17:41:30Z,11/13/17 12:41,2052625,0.6498,0.0071,1291,24.8,27.1,,0.0
2017-11-13T17:42:33Z,11/13/17 12:42,2052626,0.7063,0.0071,1282,24.9,27.0,,0.0
2017-11-13T17:43:36Z,11/13/17 12:43,2052627,0.6674,0.0106,1265,24.9,27.0,,0.01
2017-11-13T17:44:39Z,11/13/17 12:44,2052628,0.724,0.0035,1314,25.0,27.0,,0.01
2017-11-13T17:45:42Z,11/13/17 12:45,2052629,0.6816,0.0071,1242,25.0,27.0,,0.01
2017-11-13T17:46:45Z,11/13/17 12:46,2052630,0.6286,0.0071,1289,25.0,26.9,,0.01
2017-11-13T17:47:48Z,11/13/17 12:47,2052631,0.6357,0.0106,1269,25.1,26.9,,0.01
2017-11-13T17:48:52Z,11/13/17 12:48,2052632,0.6674,0.0035,1217,25.1,26.9,,0.01
2017-11-13T17:49:55Z,11/13/17 12:49,2052633,0.7063,0.0035,1276,25.1,26.7,,0.01
2017-11-13T17:50:58Z,11/13/17 12:50,2052634,0.7734,0.0141,1235,25.1,26.7,,0.01
2017-11-13T17:52:01Z,11/13/17 12:52,2052635,0.7098,0.0177,1238,25.1,26.7,,0.01
2017-11-13T17:53:04Z,11/13/17 12:53,2052636,0.6427,0.0071,1231,25.2,26.7,,0.01
2017-11-13T17:55:10Z,11/13/17 12:55,2052637,0.7134,0.0106,1339,25.2,26.9,,0.01
2017-11-13T17:56:13Z,11/13/17 12:56,2052638,0.6639,0.0106,1293,25.2,26.8,,0.01
2017-11-13T17:57:16Z,11/13/17 12:57,2052639,0.7098,0.0141,1248,25.2,26.7,,0.01
2017-11-13T17:58:19Z,11/13/17 12:58,2052640,0.7416,0.0106,1264,25.2,26.7,,0.01
2017-11-13T17:59:22Z,11/13/17 12:59,2052641,0.7275,0.0177,1261,25.2,26.9,,0.01
2017-11-13T18:00:25Z,11/13/17 13:00,2052642,0.6851,0.0141,1254,25.2,26.8,,0.01
2017-11-13T18:01:28Z,11/13/17 13:01,2052643,0.6251,0.0071,1238,25.2,26.7,,0.01
2017-11-13T18:02:31Z,11/13/17 13:02,2052644,0.6604,0.0141,1267,25.3,26.6,,0.01
2017-11-13T18:03:34Z,11/13/17 13:03,2052645,0.6639,0.0177,1222,25.2,26.6,,0.01
2017-11-13T18:04:37Z,11/13/17 13:04,2052646,0.6251,0.0035,1212,25.2,26.6,,0.01
2017-11-14T18:02:59Z,11/14/17 13:02,2052647,1.063,0.0636,1251,20.0,40.9,,0.0
2017-11-14T18:04:32Z,11/14/17 13:04,2052648,0.9288,0.0459,1274,20.2,40.5,,0.0
2017-11-14T18:05:35Z,11/14/17 13:05,2052649,0.95,0.053,1325,20.4,40.2,,0.0
2017-11-14T18:06:38Z,11/14/17 13:06,2052650,0.8546,0.0424,1336,20.6,39.9,,0.0
2017-11-14T18:07:41Z,11/14/17 13:07,2052651,0.837,0.0565,1320,20.6,39.7,,0.0
2017-11-14T18:08:44Z,11/14/17 13:08,2052652,0.784,0.0494,1296,20.6,39.4,,0.0
2017-11-14T18:09:47Z,11/14/17 13:09,2052653,0.8193,0.0565,1310,20.8,39.3,,0.0
2017-11-14T18:10:50Z,11/14/17 13:10,2052654,43.9033,1.6739,1301,21.0,39.1,,0.0
2017-11-14T18:11:53Z,11/14/17 13:11,2052655,48.6178,4.259,1266,21.1,38.9,,0.0
2017-11-14T18:12:56Z,11/14/17 13:12,2052656,31.8398,2.3308,1277,21.1,38.7,,0.0
2017-11-14T18:13:59Z,11/14/17 13:13,2052657,52.7779,1.7516,1284,21.3,38.5,,0.0
2017-11-14T18:15:02Z,11/14/17 13:15,2052658,70.4352,2.4226,1299,21.5,38.2,,0.0
2017-11-14T18:17:08Z,11/14/17 13:17,2052659,53.244,1.8046,1284,21.7,37.8,,0.0
2017-11-14T18:18:11Z,11/14/17 13:18,2052660,52.453,1.5221,1307,21.7,37.7,,0.0
2017-12-03T19:31:11Z,12/03/17 14:31,2052661,0.2543,0.0,1562,22.3,37.7,,0.0
2017-12-03T19:32:44Z,12/03/17 14:32,2052662,0.226,0.0035,1489,22.4,37.3,,0.0
2017-12-03T19:33:47Z,12/03/17 14:33,2052663,0.2295,0.0035,1451,22.4,37.0,,0.0